Regional Weather Roundup
Issued by NWS

Home | Current Version | Previous Version | Graphics & Text | Print | Product List | Glossary On
Versions: 1 2 3 4 5 6 7 8 9 10 11 12 13 14 15 16 17 18 19 20 21 22 23 24 25 26 27 28 29 30 31 32 33 34 35 36 37 38 39 40 41 42 43 44 45 46 47 48 49 50
000
ASUS45 KCYS 031610
RWRWY

WYOMING REGIONAL WEATHER ROUNDUP
NATIONAL WEATHER SERVICE CHEYENNE WY
1000 AM MDT THU SEP 03 2015

NOTE:  "FAIR" INDICATES FEW OR NO CLOUDS BELOW 12,000 FEET
WITH NO SIGNIFICANT WEATHER AND/OR OBSTRUCTIONS TO VISIBILITY.

WYZ001-031700-
YELLOWSTONE NATIONAL PARK

CITY           SKY/WX    TMP DP  RH WIND       PRES   REMARKS
LK YELLOWSTONE   N/A     62  40  44 CALM      30.09S
W YELLOWSTONE  NOT AVBL

$$
WYZ002>013-054>058-071-098>099-031700-
NORTHERN WYOMING

CITY           SKY/WX    TMP DP  RH WIND       PRES   REMARKS
JACKSON        FAIR      70  41  35 S10       30.00F
CODY           FAIR      61  39  44 NE6       29.92F
GREYBULL       FAIR      76  36  23 SW9       29.83F
WORLAND        FAIR      74  45  35 E6        29.85F
SHERIDAN       FAIR      66  36  32 NW12      29.90F
BUFFALO        FAIR      68  38  33 N13       29.95R
GILLETTE       FAIR      80  40  23 SW3       29.88S
HULETT         FAIR      77  43  29 SW13      29.89R
NEWCASTLE      FAIR      81  37  21 SE6       29.91S

$$
WYZ014>020-022>026-101>103-031700-
CENTRAL WYOMING

CITY           SKY/WX    TMP DP  RH WIND       PRES   REMARKS
BIG PINEY      FAIR      63  36  36 S6        30.11S
PINEDALE       FAIR      64  34  32 S7        30.11F
DUBOIS         FAIR      61  34  36 W10       30.06S
LANDER         FAIR      72  39  30 E5        29.95S
RIVERTON       FAIR      70  41  34 CALM      29.96S
CASPER         FAIR      80  39  23 S18       29.98S
DOUGLAS        FAIR      83  40  21 W3        29.97S

$$
WYZ021-027>030-104>119-031700-
SOUTHERN WYOMING

CITY           SKY/WX    TMP DP  RH WIND       PRES   REMARKS
EVANSTON       FAIR      70  35  27 SW21G26   30.10F
KEMMERER       FAIR      64  34  32 SW13G18   30.12S
FORT BRIDGER   SUNNY     72  34  25 W14G21    30.14F
ROCK SPRINGS   FAIR      69  38  32 W3        30.11S
DIXON          FAIR      72  42  34 SW13G21   30.16F
RAWLINS        FAIR      76  38  25 SW21      30.12S
SARATOGA       FAIR      64  46  52 E5        30.16S
LARAMIE        FAIR      74  41  30 W14       30.16F
CHEYENNE       CLOUDY    76  46  34 VRB3      30.09R
TORRINGTON     FAIR      80  49  33 CALM      29.92F
PINE BLUFFS    FAIR      84  36  17 NW12      30.01S

$$



USA.gov is the U.S. government's official web portal to all federal, state and local government web resources and services.